Regional Weather Roundup
Issued by NWS

Home | Current Version | Previous Version | Graphics & Text | Print | Product List | Glossary On
Versions: 1 2 3 4 5 6 7 8 9 10 11 12 13 14 15 16 17 18 19 20 21 22 23 24 25 26 27 28 29 30 31 32 33 34 35 36 37 38 39 40 41 42 43 44 45 46 47 48 49 50
000
ASUS43 KIND 192259
RWRIN

WEATHER ROUNDUP FOR INDIANA
NATIONAL WEATHER SERVICE INDIANAPOLIS IN
600 PM EST FRI DEC 19 2014

NOTE: "FAIR" INDICATES FEW OR NO CLOUDS BELOW 12,000 FEET WITH NO
SIGNIFICANT WEATHER AND/OR OBSTRUCTIONS TO VISIBILITY.

* - STATION DOES NOT REPORT WEATHER SUCH AS PRECIPITATION OR FOG.

+ - STATION NOT QUALITY CONTROLLED BY THE NATIONAL WEATHER SERVICE.
    USE DATA WITH CAUTION...ESPECIALLY DEWPOINT AND RELATIVE
    HUMIDITY OBSERVATIONS.

INZ001>003-010>013-019-020-200000-
NORTHWEST INDIANA

CITY           SKY/WX    TMP DP  RH WIND       PRES   REMARKS
VALPARAISO     CLOUDY    30  23  74 W3        30.32R

$$

LMZ046-743>745-200000-
SOUTHERN LAKE MICHIGAN

STATION/POSITION TIME  TEMP WIND        PRES
                       AIR  DIR/SP/G
                 (UTC) (F)  (DEG/KT/KT) (MB)

$$

INZ004-005-014>016-021>024-200000-
NORTH CENTRAL INDIANA

CITY           SKY/WX    TMP DP  RH WIND       PRES   REMARKS
GOSHEN         CLOUDY    31  23  72 W8        30.31R WCI  23
PERU/GRISSOM   CLOUDY    30  30 100 NW7       30.30S WCI  23
SOUTH BEND     CLOUDY    32  27  81 SW8       30.32R WCI  25

$$

INZ006>009-017-018-025>027-200000-
NORTHEAST INDIANA

CITY           SKY/WX    TMP DP  RH WIND       PRES   REMARKS
ANGOLA *+      CLEAR     27  21  80 CALM      30.28R
FORT WAYNE     CLOUDY    31  24  75 E3        30.31R

$$

INZ028-029-035-036-043>045-051>053-200000-
WEST CENTRAL INDIANA

CITY           SKY/WX    TMP DP  RH WIND       PRES   REMARKS
GREENCASTLE +  CLOUDY    30  23  74 N3        30.29F
LAFAYETTE      CLOUDY    29  26  89 CALM      30.31F
TERRE HAUTE    CLOUDY    32  24  72 E5        30.30F WCI  27

$$

INZ030>032-037>040-046>048-054>057-064-065-200000-
CENTRAL INDIANA

CITY           SKY/WX    TMP DP  RH WIND       PRES   REMARKS
INDIANAPOLIS   CLOUDY    29  23  78 CALM      30.29F
-EAGLE CREEK   CLOUDY    30  24  78 N5        30.29S WCI  25
KOKOMO *+      CLOUDY    30  25  80 NW5       30.31R WCI  25
MT COMFORT *+  MOCLDY    30  18  59 CALM      30.30S
SHELBYVILLE    CLOUDY    31  23  72 CALM      30.30S

$$

INZ033-034-041-042-049-050-058-059-200000-
EAST CENTRAL INDIANA

CITY           SKY/WX    TMP DP  RH WIND       PRES   REMARKS
MUNCIE         CLOUDY    29  24  82 W5        30.30R WCI  24

$$

INZ060-061-067>069-081>083-085>088-200000-
SOUTHWEST INDIANA

CITY           SKY/WX    TMP DP  RH WIND       PRES   REMARKS
EVANSVILLE     PTCLDY    34  25  69 N3        30.29F
HUNTINGBURG *+ PTCLDY    30  21  69 NE3       30.29S

$$

INZ062-063-066-070>080-084-089>092-200000-
SOUTH CENTRAL AND SOUTHEAST INDIANA

CITY           SKY/WX    TMP DP  RH WIND       PRES   REMARKS
BLOOMINGTON    CLOUDY    32  23  69 NE6       30.28F WCI  26

$$




USA.gov is the U.S. government's official web portal to all federal, state and local government web resources and services.